When you browse on this site, cookies collect data to enhance your experience and personalize the content and advertising you see.
Visit our Privacy Policy to learn more. By continuing to use the site, you agree to this use of cookies and data.
  • In Latvia
  • List of Countries
  • For 7 days
  • Water Temperature
  • Satellite Maps
  • Weather Map
  • Weather Widgets
  • user-avatar
    Login

    Hourly Weather Darwin

    Today, 26 March, Tuesday

    Time Temperature Precipitation Wind Pressure Humidity
    00:00 +30°C° 0 mm 4 mps 757 mmHg 84%
    01:00 +30°C° 0 mm 4 mps 757 mmHg 84%
    02:00 +30°C° 0 mm 5 mps 757 mmHg 85%
    03:00 +30°C° 0 mm 5 mps 757 mmHg 86%
    04:00 +30°C° 1.3 mm 5 mps 757 mmHg 88%
    05:00 +29°C° 1.3 mm 5 mps 757 mmHg 90%
    06:00 +29°C° 1.3 mm 5 mps 757 mmHg 91%
    07:00 +30°C° 2.4 mm 6 mps 757 mmHg 89%
    08:00 +32°C° 2.4 mm 6 mps 757 mmHg 87%
    09:00 +33°C° 0 mm 4 mps 758 mmHg 84%
    10:00 +33°C° 3.6 mm 4 mps 757 mmHg 81%
    11:00 +34°C° 3.6 mm 4 mps 757 mmHg 79%
    12:00 +34°C° 3.6 mm 4 mps 757 mmHg 76%
    13:00 +34°C° 2.5 mm 4 mps 756 mmHg 74%
    14:00 +34°C° 2.5 mm 3 mps 756 mmHg 73%
    15:00 +30°C° 0 mm 2 mps 756 mmHg 91%
    16:00 +29°C° 0.8 mm 2 mps 756 mmHg 91%
    17:00 +29°C° 0.8 mm 2 mps 756 mmHg 91%
    18:00 +29°C° 0.8 mm 2 mps 756 mmHg 91%
    19:00 +29°C° 0.7 mm 2 mps 757 mmHg 91%
    20:00 +28°C° 0.7 mm 3 mps 757 mmHg 91%
    21:00 +28°C° 0 mm 2 mps 757 mmHg 89%
    22:00 +28°C° 0.1 mm 1 mps 757 mmHg 89%
    23:00 +28°C° 0.1 mm 1 mps 757 mmHg 88%

    Tomorrow, 27 March, Wednesday

    Time Temperature Precipitation Wind Pressure Humidity
    00:00 +26°C° 0.1 mm 0 mps 757 mmHg 88%
    01:00 +28°C° 0.3 mm 1 mps 757 mmHg 89%
    02:00 +27°C° 0.3 mm 1 mps 757 mmHg 90%
    03:00 +27°C° 0.3 mm 1 mps 756 mmHg 91%
    04:00 +27°C° 0.1 mm 2 mps 756 mmHg 91%
    05:00 +27°C° 0.1 mm 2 mps 756 mmHg 92%
    06:00 +27°C° 0.1 mm 2 mps 756 mmHg 92%
    07:00 +28°C° 0.1 mm 2 mps 757 mmHg 88%
    08:00 +30°C° 0.1 mm 2 mps 757 mmHg 84%
    09:00 +31°C° 0.1 mm 2 mps 757 mmHg 80%
    10:00 +32°C° 1 mm 2 mps 757 mmHg 76%
    11:00 +34°C° 1 mm 2 mps 757 mmHg 71%
    12:00 +34°C° 1 mm 1 mps 756 mmHg 67%
    13:00 +35°C° 0.4 mm 1 mps 756 mmHg 66%
    14:00 +35°C° 0.4 mm 1 mps 756 mmHg 66%
    15:00 +33°C° 0.4 mm 0 mps 755 mmHg 66%
    16:00 +34°C° 2 mm 1 mps 755 mmHg 71%
    17:00 +32°C° 2 mm 1 mps 755 mmHg 77%
    18:00 +31°C° 2 mm 1 mps 755 mmHg 82%
    19:00 +30°C° 0.2 mm 2 mps 755 mmHg 83%
    20:00 +30°C° 0.2 mm 3 mps 756 mmHg 84%
    21:00 +29°C° 0.2 mm 3 mps 756 mmHg 85%
    22:00 +29°C° 0.1 mm 3 mps 756 mmHg 85%
    23:00 +29°C° 0.1 mm 3 mps 756 mmHg 85%

    Day after tomorrow, 28 March, Thursday

    Time Temperature Precipitation Wind Pressure Humidity
    00:00 +29°C° 0.1 mm 3 mps 756 mmHg 85%
    01:00 +29°C° 0 mm 3 mps 756 mmHg 85%
    02:00 +28°C° 0 mm 3 mps 755 mmHg 86%
    03:00 +28°C° 0 mm 3 mps 755 mmHg 86%
    04:00 +28°C° 0 mm 3 mps 755 mmHg 87%
    05:00 +28°C° 0 mm 4 mps 755 mmHg 89%
    06:00 +28°C° 0 mm 4 mps 755 mmHg 90%
    07:00 +29°C° 0 mm 4 mps 756 mmHg 83%
    08:00 +30°C° 0 mm 4 mps 756 mmHg 76%
    09:00 +32°C° 0 mm 4 mps 756 mmHg 69%
    10:00 +33°C° 0 mm 4 mps 756 mmHg 63%
    11:00 +35°C° 0 mm 3 mps 756 mmHg 57%
    12:00 +36°C° 0 mm 2 mps 755 mmHg 51%
    13:00 +37°C° 0 mm 2 mps 755 mmHg 49%
    14:00 +38°C° 0 mm 2 mps 754 mmHg 47%
    15:00 +38°C° 0 mm 2 mps 753 mmHg 45%
    16:00 +37°C° 0 mm 3 mps 753 mmHg 53%
    17:00 +35°C° 0 mm 4 mps 753 mmHg 60%
    18:00 +33°C° 0 mm 5 mps 753 mmHg 68%
    19:00 +32°C° 0 mm 4 mps 754 mmHg 70%
    20:00 +32°C° 0 mm 4 mps 755 mmHg 73%
    21:00 +30°C° 0 mm 4 mps 755 mmHg 76%
    22:00 +30°C° 0 mm 4 mps 755 mmHg 77%
    23:00 +30°C° 0 mm 4 mps 755 mmHg 78%

    29 March, Friday

    Time Temperature Precipitation Wind Pressure Humidity
    00:00 +29°C° 0 mm 4 mps 755 mmHg 78%
    01:00 +29°C° 0.1 mm 3 mps 755 mmHg 80%
    02:00 +29°C° 0.1 mm 3 mps 755 mmHg 81%
    03:00 +28°C° 0.1 mm 3 mps 754 mmHg 83%
    04:00 +28°C° 0 mm 3 mps 754 mmHg 84%
    05:00 +28°C° 0 mm 3 mps 754 mmHg 86%
    06:00 +28°C° 0 mm 3 mps 755 mmHg 87%
    07:00 +29°C° 0 mm 3 mps 755 mmHg 80%
    08:00 +30°C° 0 mm 3 mps 755 mmHg 73%
    09:00 +31°C° 0 mm 3 mps 756 mmHg 65%
    10:00 +33°C° 0 mm 3 mps 756 mmHg 58%
    11:00 +34°C° 0 mm 3 mps 755 mmHg 50%
    12:00 +36°C° 0 mm 3 mps 755 mmHg 42%
    13:00 +36°C° 0 mm 2 mps 754 mmHg 42%
    14:00 +37°C° 0 mm 2 mps 754 mmHg 42%
    15:00 +37°C° 0 mm 2 mps 753 mmHg 42%
    16:00 +36°C° 0 mm 2 mps 753 mmHg 50%
    17:00 +34°C° 0 mm 3 mps 753 mmHg 58%
    18:00 +32°C° 0 mm 4 mps 753 mmHg 66%
    19:00 +32°C° 0 mm 4 mps 754 mmHg 69%
    20:00 +30°C° 0 mm 3 mps 755 mmHg 72%
    21:00 +30°C° 0 mm 3 mps 755 mmHg 75%
    22:00 +30°C° 0 mm 3 mps 755 mmHg 76%
    23:00 +29°C° 0 mm 3 mps 755 mmHg 77%

    30 March, Saturday

    Time Temperature Precipitation Wind Pressure Humidity
    00:00 +29°C° 0 mm 3 mps 756 mmHg 78%
    01:00 +29°C° 0 mm 3 mps 755 mmHg 78%
    02:00 +29°C° 0 mm 3 mps 755 mmHg 79%
    03:00 +28°C° 0 mm 3 mps 755 mmHg 80%
    04:00 +28°C° 0 mm 3 mps 755 mmHg 80%
    05:00 +28°C° 0 mm 3 mps 755 mmHg 80%
    06:00 +27°C° 0 mm 3 mps 755 mmHg 80%
    07:00 +28°C° 0 mm 3 mps 756 mmHg 74%
    08:00 +29°C° 0 mm 3 mps 756 mmHg 69%
    09:00 +30°C° 0 mm 3 mps 757 mmHg 64%
    10:00 +33°C° 0 mm 3 mps 757 mmHg 56%
    11:00 +34°C° 0 mm 3 mps 756 mmHg 47%
    12:00 +36°C° 0 mm 2 mps 756 mmHg 39%
    13:00 +36°C° 0 mm 2 mps 755 mmHg 38%
    14:00 +36°C° 0 mm 1 mps 754 mmHg 36%
    15:00 +36°C° 0 mm 1 mps 754 mmHg 35%
    16:00 +36°C° 0 mm 2 mps 754 mmHg 40%
    17:00 +34°C° 0 mm 2 mps 754 mmHg 45%
    18:00 +33°C° 0 mm 3 mps 754 mmHg 50%
    19:00 +31°C° 0 mm 3 mps 755 mmHg 53%
    20:00 +30°C° 0 mm 3 mps 755 mmHg 57%
    21:00 +30°C° 0 mm 3 mps 756 mmHg 60%
    22:00 +29°C° 0 mm 3 mps 756 mmHg 61%
    23:00 +29°C° 0 mm 3 mps 756 mmHg 63%

    1 April, Monday

    Time Temperature Precipitation Wind Pressure Humidity
    00:00 +29°C° 0 mm 2 mps 757 mmHg 63%
    01:00 +28°C° 0 mm 2 mps 756 mmHg 62%
    02:00 +28°C° 0 mm 2 mps 756 mmHg 61%
    03:00 +28°C° 0 mm 2 mps 756 mmHg 60%
    04:00 +27°C° 0 mm 4 mps 756 mmHg 57%
    05:00 +27°C° 0 mm 5 mps 757 mmHg 55%
    06:00 +27°C° 0 mm 6 mps 757 mmHg 53%
    07:00 +28°C° 0 mm 6 mps 758 mmHg 50%
    08:00 +28°C° 0 mm 6 mps 758 mmHg 48%
    09:00 +29°C° 0 mm 7 mps 758 mmHg 46%
    10:00 +30°C° 0 mm 6 mps 758 mmHg 43%
    11:00 +33°C° 0 mm 5 mps 757 mmHg 40%
    12:00 +34°C° 0 mm 4 mps 757 mmHg 38%
    13:00 +35°C° 0 mm 3 mps 756 mmHg 37%
    14:00 +36°C° 0 mm 3 mps 756 mmHg 37%
    15:00 +37°C° 0 mm 2 mps 755 mmHg 37%
    16:00 +35°C° 0 mm 2 mps 755 mmHg 42%
    17:00 +33°C° 0 mm 1 mps 756 mmHg 47%
    18:00 +32°C° 0 mm 1 mps 756 mmHg 52%
    19:00 +31°C° 0 mm 1 mps 756 mmHg 52%
    20:00 +30°C° 0 mm 1 mps 757 mmHg 53%
    21:00 +30°C° 0 mm 2 mps 757 mmHg 53%
    22:00 +29°C° 0 mm 2 mps 757 mmHg 55%
    23:00 +29°C° 0 mm 3 mps 757 mmHg 56%
    Show more